User: anonymous   Login
Location: *
(43.9905°S, 176.4941°W)
Time: 01:09:29
(UTC+00:00)
Language:

Cosmos 2151 Rocket - Orbit

View from above orbital plane
View from above orbital plane
View from above satellite
View from above satellite

Ground track
Ground track

The orbit data is extracted from the following two-line orbital elements,

1 21423U 91042B   20047.74878148  .00000028  00000-0  71545-6 0  9996
2 21423  82.4953 130.6629 0016249 300.4874  59.4734 14.79782462546704
Epoch (UTC): 16 February 2020 17:58:14
Eccentricity: 0.0016249
inclination: 82.4953°
perigee height: 618 km
apogee height: 641 km
right ascension of ascending node: 130.6629°
argument of perigee: 300.4874°
revolutions per day: 14.79782462
mean anomaly at epoch: 59.4734°
orbit number at epoch: 54670

The dashed part of the orbit path shows where the satellite is in the earth's shadow,  

DLR